^^
Your Local Weather - Clay, NY Station Historical Data
Daily Summary for May 13, 2017 Units:  Metric    English   Both
« Previous Day
Next Day »
Daily Weekly Monthly Yearly Custom
  High: Low: Average:
Temperature: 13.1 °C 9.4 °C 11.3 °C
Dew Point: 9.4 °C 6.4 °C 8.2 °C
Humidity: 92% 69% 81%
Wind Speed: 6.4km/h 0km/h 1.9km/h
Wind Gust: 12.9km/h - -
Wind- - SSE
Pressure: 1012.1 hPa 1007.7 hPa -
Precipitation: 4.32 mm    
Historical Graphs
 
 
Tabular Data for May 13, 2017
Time Temperature Dew Point Pressure Wind Wind Speed Wind Gust Humidity Rainfall Rate (Hourly) solar
00:02 13.1 °C 8.3 °C 1011.7 hPa West 1.6 km/h 3.2 km/h 73% 0 mm 0 W/m2
00:08 13.1 °C 8.3 °C 1012.1 hPa West 1.6 km/h 4.8 km/h 73% 0 mm 0 W/m2
00:14 13.1 °C 8.3 °C 1012.1 hPa West 1.6 km/h 3.2 km/h 73% 0 mm 0 W/m2
00:19 13.1 °C 8.3 °C 1012.1 hPa West 1.6 km/h 1.6 km/h 73% 0 mm 0 W/m2
00:26 13.1 °C 8.1 °C 1012.1 hPa West 1.6 km/h 1.6 km/h 72% 0 mm 0 W/m2
00:32 13.1 °C 8.1 °C 1012.1 hPa Calm   1.6 km/h 72% 0 mm 0 W/m2
00:38 13 °C 8.1 °C 1012.1 hPa Calm   1.6 km/h 72% 0 mm 0 W/m2
00:44 13 °C 8.1 °C 1012.1 hPa Calm   1.6 km/h 72% 0 mm 0 W/m2
00:50 13 °C 8.1 °C 1012.1 hPa Calm     72% 0 mm 0 W/m2
00:56 12.9 °C 8 °C 1011.7 hPa Calm     72% 0 mm 0 W/m2
01:02 12.9 °C 8.2 °C 1011.7 hPa Calm     73% 0 mm 0 W/m2
01:08 12.9 °C 8.2 °C 1011.7 hPa Calm   1.6 km/h 73% 0 mm 0 W/m2
01:14 12.8 °C 8.1 °C 1011.7 hPa Calm     73% 0 mm 0 W/m2
01:20 12.8 °C 8.1 °C 1011.7 hPa Calm     73% 0 mm 0 W/m2
01:26 12.7 °C 8 °C 1011.7 hPa Calm     73% 0 mm 0 W/m2
01:32 12.7 °C 8.2 °C 1011.7 hPa Calm     74% 0 mm 0 W/m2
01:38 12.6 °C 8.1 °C 1011.7 hPa Calm     74% 0 mm 0 W/m2
01:44 12.6 °C 8.1 °C 1011.7 hPa Calm     74% 0 mm 0 W/m2
01:50 12.6 °C 8.1 °C 1011.7 hPa Calm     74% 0 mm 0 W/m2
01:56 12.5 °C 8.2 °C 1011.7 hPa Calm     75% 0 mm 0 W/m2
02:02 12.4 °C 8.3 °C 1011.7 hPa Calm     76% 0 mm 0 W/m2
02:08 12.3 °C 8.3 °C 1011.4 hPa Calm     77% 0 mm 0 W/m2
02:14 12.2 °C 8.4 °C 1011.4 hPa Calm     78% 0 mm 0 W/m2
02:20 12.1 °C 8.5 °C 1011.4 hPa Calm     79% 0 mm 0 W/m2
02:26 11.9 °C 8.4 °C 1011.4 hPa Calm     79% 0 mm 0 W/m2
02:32 11.9 °C 8.6 °C 1011.4 hPa Calm     80% 0 mm 0 W/m2
02:38 11.8 °C 8.4 °C 1011.4 hPa Calm     80% 0 mm 0 W/m2
02:44 11.7 °C 8.6 °C 1011.4 hPa Calm     81% 0 mm 0 W/m2
02:52 11.6 °C 8.4 °C 1011.7 hPa Calm     81% 0 mm 0 W/m2
02:58 11.7 °C 8.5 °C 1011.7 hPa Calm   1.6 km/h 81% 0 mm 0 W/m2
03:04 11.7 °C 8.7 °C 1011.7 hPa Calm     82% 0 mm 0 W/m2
03:10 11.7 °C 8.6 °C 1011.7 hPa Calm   1.6 km/h 81% 0 mm 0 W/m2
03:16 11.7 °C 8.5 °C 1011.7 hPa WSW 1.6 km/h 3.2 km/h 81% 0 mm 0 W/m2
03:24 11.6 °C 8.7 °C 1011.7 hPa SW 1.6 km/h 6.4 km/h 82% 1.78 mm 0 W/m2
03:30 11.4 °C 8.6 °C 1011.7 hPa South 3.2 km/h 3.2 km/h 83% 3.05 mm 0 W/m2
03:36 11.2 °C 8.6 °C 1011.7 hPa SSW 3.2 km/h 3.2 km/h 84% 2.29 mm 0 W/m2
03:42 11 °C 8.6 °C 1011.7 hPa SSW 1.6 km/h 3.2 km/h 85% 2.54 mm 0 W/m2
03:48 10.9 °C 8.6 °C 1011.7 hPa SSW 1.6 km/h 3.2 km/h 86% 1.52 mm 0 W/m2
03:54 10.8 °C 8.7 °C 1011.7 hPa SSW 1.6 km/h 3.2 km/h 87% 1.02 mm 0 W/m2
04:00 10.7 °C 8.6 °C 1011.7 hPa SSW 3.2 km/h 3.2 km/h 87% 1.02 mm 0 W/m2
04:06 10.6 °C 8.7 °C 1011.7 hPa SSE 3.2 km/h 6.4 km/h 88% 1.27 mm 0 W/m2
04:12 10.5 °C 8.6 °C 1011.7 hPa SSW 3.2 km/h 3.2 km/h 88% 1.27 mm 0 W/m2
04:18 10.5 °C 8.6 °C 1011.7 hPa South 1.6 km/h 3.2 km/h 88% 1.02 mm 0 W/m2
04:24 10.4 °C 8.7 °C 1011.7 hPa South 1.6 km/h 4.8 km/h 89% 0 mm 0 W/m2
04:30 10.4 °C 8.7 °C 1011.7 hPa South 1.6 km/h 1.6 km/h 89% 0 mm 0 W/m2
04:36 10.4 °C 8.7 °C 1011.7 hPa Calm   1.6 km/h 89% 0 mm 0 W/m2
04:42 10.3 °C 8.6 °C 1011.7 hPa Calm   3.2 km/h 89% 0 mm 0 W/m2
04:48 10.3 °C 8.6 °C 1011.7 hPa Calm   3.2 km/h 89% 0 mm 0 W/m2
04:54 10.3 °C 8.7 °C 1011.4 hPa Calm     90% 0 mm 0 W/m2
05:00 10.3 °C 8.7 °C 1011.4 hPa Calm     90% 0 mm 0 W/m2
05:05 10.3 °C 8.7 °C 1011.4 hPa South 1.6 km/h 1.6 km/h 90% 0 mm 0 W/m2
05:12 10.2 °C 8.7 °C 1011.4 hPa Calm     90% 0 mm 0 W/m2
05:18 10.2 °C 8.6 °C 1011.4 hPa Calm     90% 0 mm 0 W/m2
05:24 10.2 °C 8.6 °C 1011.4 hPa Calm   3.2 km/h 90% 0 mm 0 W/m2
05:29 10.2 °C 8.6 °C 1011.4 hPa Calm     90% 0 mm 0 W/m2
05:36 10.2 °C 8.6 °C 1011.1 hPa Calm     90% 0 mm 0 W/m2
05:42 10.1 °C 8.6 °C 1011.1 hPa Calm     90% 0 mm 0 W/m2
05:48 10.1 °C 8.6 °C 1011.1 hPa Calm     90% 0 mm 0 W/m2
05:54 10.1 °C 8.6 °C 1011.1 hPa Calm     90% 0 mm 0 W/m2
06:00 10.1 °C 8.5 °C 1011.1 hPa Calm     90% 1.27 mm 0 W/m2
06:06 10.1 °C 8.5 °C 1011.1 hPa Calm     90% 1.78 mm 0 W/m2
06:12 10.1 °C 8.7 °C 1011.1 hPa Calm     91% 1.78 mm 5 W/m2
06:18 10.1 °C 8.7 °C 1011.1 hPa Calm     91% 1.02 mm 5 W/m2
06:24 10 °C 8.6 °C 1011.4 hPa Calm     91% 0 mm 7 W/m2
06:30 9.9 °C 8.6 °C 1011.4 hPa Calm     91% 0 mm 7 W/m2
06:36 9.9 °C 8.6 °C 1011.7 hPa Calm     91% 0 mm 9 W/m2
06:42 9.9 °C 8.6 °C 1011.7 hPa Calm     91% 0 mm 11 W/m2
06:48 10 °C 8.6 °C 1011.7 hPa Calm     91% 0 mm 9 W/m2
06:54 10 °C 8.6 °C 1011.7 hPa Calm     91% 0 mm 12 W/m2
07:00 10 °C 8.8 °C 1011.7 hPa Calm     92% 0 mm 16 W/m2
07:06 10.1 °C 8.8 °C 1011.7 hPa Calm     92% 1.02 mm 18 W/m2
07:12 10.1 °C 8.9 °C 1011.7 hPa Calm     92% 2.03 mm 25 W/m2
07:18 10.1 °C 8.9 °C 1011.7 hPa Calm   1.6 km/h 92% 1.78 mm 21 W/m2
07:24 10.2 °C 8.9 °C 1011.7 hPa Calm     92% 1.02 mm 25 W/m2
07:30 10.2 °C 8.9 °C 1011.7 hPa Calm     92% 0 mm 35 W/m2
07:36 10.3 °C 9.1 °C 1011.7 hPa Calm     92% 0 mm 40 W/m2
07:42 10.3 °C 9.1 °C 1011.7 hPa Calm     92% 0 mm 44 W/m2
07:48 10.4 °C 9.2 °C 1011.7 hPa Calm     92% 0 mm 39 W/m2
07:54 10.4 °C 9.2 °C 1011.7 hPa Calm     92% 0 mm 49 W/m2
08:00 10.4 °C 9.2 °C 1011.7 hPa Calm     92% 0 mm 40 W/m2
08:06 10.4 °C 9.2 °C 1011.7 hPa Calm   1.6 km/h 92% 0 mm 23 W/m2
08:12 10.4 °C 9.2 °C 1011.7 hPa SSE 1.6 km/h 1.6 km/h 92% 0 mm 51 W/m2
08:18 10.4 °C 9.2 °C 1011.7 hPa SW 3.2 km/h 6.4 km/h 92% 6.86 mm 54 W/m2
08:24 10.3 °C 9.1 °C 1011.4 hPa SW 1.6 km/h 3.2 km/h 92% 2.03 mm 51 W/m2
08:30 10.3 °C 9.1 °C 1011.7 hPa SW 1.6 km/h 1.6 km/h 92% 1.02 mm 51 W/m2
08:36 10.4 °C 9.2 °C 1011.7 hPa SW 1.6 km/h 3.2 km/h 92% 0 mm 40 W/m2
08:42 10.4 °C 9.2 °C 1011.7 hPa SE 1.6 km/h 4.8 km/h 92% 0 mm 42 W/m2
08:48 10.3 °C 9.1 °C 1011.7 hPa SE 3.2 km/h 4.8 km/h 92% 0 mm 37 W/m2
08:54 10 °C 8.6 °C 1011.7 hPa SE 4.8 km/h 9.7 km/h 91% 0 mm 40 W/m2
09:00 9.9 °C 8.4 °C 1011.7 hPa SSE 4.8 km/h 4.8 km/h 90% 0 mm 47 W/m2
09:06 10.1 °C 8.5 °C 1011.7 hPa SE 1.6 km/h 4.8 km/h 90% 0 mm 56 W/m2
09:12 10.1 °C 8.6 °C 1011.7 hPa Calm     90% 0 mm 81 W/m2
09:18 10.3 °C 8.7 °C 1011.7 hPa Calm     90% 0 mm 105 W/m2
09:24 10.4 °C 8.9 °C 1011.7 hPa Calm     90% 0 mm 120 W/m2
09:30 10.6 °C 9 °C 1011.7 hPa Calm     90% 0 mm 141 W/m2
09:36 10.7 °C 9.2 °C 1011.7 hPa Calm     90% 0 mm 135 W/m2
09:42 10.9 °C 9.3 °C 1011.7 hPa Calm     90% 0 mm 156 W/m2
09:48 11 °C 9.4 °C 1011.7 hPa Calm   3.2 km/h 90% 0 mm 207 W/m2
09:54 11.1 °C 9.3 °C 1011.7 hPa SE 1.6 km/h 1.6 km/h 89% 0 mm 206 W/m2
10:00 11.2 °C 9.4 °C 1011.7 hPa SE 1.6 km/h 1.6 km/h 89% 0 mm 200 W/m2
10:06 11.3 °C 9.4 °C 1011.7 hPa SSE 1.6 km/h 3.2 km/h 88% 0 mm 190 W/m2
10:12 11.2 °C 8.9 °C 1011.7 hPa SE 3.2 km/h 3.2 km/h 86% 0 mm 186 W/m2
10:18 11.2 °C 8.8 °C 1011.7 hPa South 4.8 km/h 4.8 km/h 85% 0 mm 146 W/m2
10:24 11.1 °C 8.3 °C 1011.7 hPa SE 3.2 km/h 4.8 km/h 83% 0 mm 109 W/m2
10:30 11.1 °C 8.3 °C 1011.7 hPa SSW 3.2 km/h 6.4 km/h 83% 0 mm 127 W/m2
10:36 11 °C 8.2 °C 1011.7 hPa ESE 3.2 km/h 6.4 km/h 83% 0 mm 113 W/m2
10:42 10.9 °C 7.9 °C 1011.7 hPa SE 3.2 km/h 6.4 km/h 82% 0 mm 214 W/m2
10:48 11.1 °C 8.1 °C 1011.7 hPa South 3.2 km/h 6.4 km/h 82% 0 mm 302 W/m2
10:54 11.4 °C 8.6 °C 1011.4 hPa SE 3.2 km/h 6.4 km/h 83% 0 mm 257 W/m2
11:00 11.4 °C 8.3 °C 1011.4 hPa SE 3.2 km/h 6.4 km/h 81% 0 mm 269 W/m2
11:06 11.4 °C 7.9 °C 1011.4 hPa South 3.2 km/h 8 km/h 79% 0 mm 197 W/m2
11:12 11.2 °C 7.5 °C 1011.4 hPa ENE 4.8 km/h 6.4 km/h 78% 0 mm 116 W/m2
11:18 11.1 °C 7.6 °C 1011.4 hPa SE 3.2 km/h 8 km/h 79% 0 mm 56 W/m2
11:24 10.9 °C 7.4 °C 1011.1 hPa ESE 3.2 km/h 4.8 km/h 79% 0 mm 47 W/m2
11:30 10.7 °C 7.4 °C 1011.4 hPa SSE 4.8 km/h 4.8 km/h 80% 0 mm 53 W/m2
11:36 10.6 °C 7.5 °C 1011.1 hPa SE 6.4 km/h 11.3 km/h 81% 0 mm 67 W/m2
11:42 10.6 °C 7.7 °C 1011.1 hPa SE 4.8 km/h 8 km/h 82% 0 mm 70 W/m2
11:48 10.7 °C 7.7 °C 1011.1 hPa SSE 4.8 km/h 8 km/h 82% 0 mm 132 W/m2
11:54 10.8 °C 7.9 °C 1011.1 hPa SE 4.8 km/h 4.8 km/h 82% 0 mm 202 W/m2
11:59 11.1 °C 7.9 °C 1011.1 hPa SE 3.2 km/h 3.2 km/h 81% 0 mm 230 W/m2
12:05 11.3 °C 7.8 °C 1011.1 hPa SSE 4.8 km/h 8 km/h 79% 0 mm 267 W/m2
12:12 11.4 °C 7.9 °C 1011.1 hPa SE 4.8 km/h 9.7 km/h 79% 0 mm 237 W/m2
12:18 11.6 °C 7.7 °C 1011.1 hPa ENE 4.8 km/h 9.7 km/h 77% 0 mm 439 W/m2
12:24 11.9 °C 7.8 °C 1011.1 hPa ESE 4.8 km/h 11.3 km/h 76% 0 mm 471 W/m2
12:29 12.1 °C 7.3 °C 1011.1 hPa ESE 4.8 km/h 4.8 km/h 73% 0 mm 353 W/m2
12:36 11.9 °C 7 °C 1010.7 hPa SE 6.4 km/h 6.4 km/h 72% 0 mm 265 W/m2
12:42 11.7 °C 6.8 °C 1010.7 hPa ESE 6.4 km/h 8 km/h 72% 0 mm 165 W/m2
12:48 11.7 °C 7 °C 1010.7 hPa SSE 4.8 km/h 8 km/h 73% 0 mm 148 W/m2
12:54 11.6 °C 6.9 °C 1010.7 hPa ESE 4.8 km/h 4.8 km/h 73% 0 mm 118 W/m2
13:00 11.4 °C 6.8 °C 1010.7 hPa SE 4.8 km/h 4.8 km/h 73% 0 mm 123 W/m2
13:06 11.3 °C 6.4 °C 1010.7 hPa SE 4.8 km/h 6.4 km/h 72% 0 mm 155 W/m2
13:12 11.4 °C 6.8 °C 1010.7 hPa SE 3.2 km/h 4.8 km/h 73% 0 mm 183 W/m2
13:18 11.6 °C 6.9 °C 1010.4 hPa SE 3.2 km/h 6.4 km/h 73% 0 mm 213 W/m2
13:24 11.7 °C 6.8 °C 1010.4 hPa East 4.8 km/h 4.8 km/h 72% 0 mm 220 W/m2
13:30 11.7 °C 6.6 °C 1010.4 hPa ENE 4.8 km/h 6.4 km/h 71% 0 mm 178 W/m2
13:36 11.8 °C 6.9 °C 1010.4 hPa SSE 4.8 km/h 8 km/h 72% 0 mm 216 W/m2
13:42 11.8 °C 6.9 °C 1010.4 hPa ESE 4.8 km/h 6.4 km/h 72% 0 mm 262 W/m2
13:48 11.9 °C 7.3 °C 1010.4 hPa ESE 3.2 km/h 6.4 km/h 73% 0 mm 308 W/m2
13:54 12.1 °C 7.3 °C 1010 hPa SE 4.8 km/h 4.8 km/h 73% 0 mm 410 W/m2
14:00 12.3 °C 7.4 °C 1010 hPa East 4.8 km/h 8 km/h 72% 0 mm 515 W/m2
14:06 12.5 °C 8 °C 1010 hPa ENE 4.8 km/h 8 km/h 74% 0 mm 473 W/m2
14:12 12.4 °C 7.6 °C 1010 hPa NNE 4.8 km/h 9.7 km/h 72% 0 mm 446 W/m2
14:18 12.5 °C 7.6 °C 1010 hPa SE 6.4 km/h 9.7 km/h 72% 0 mm 225 W/m2
14:24 12.3 °C 7.2 °C 1010 hPa East 4.8 km/h 6.4 km/h 71% 0 mm 183 W/m2
14:30 12.1 °C 7 °C 1010 hPa ENE 4.8 km/h 6.4 km/h 71% 0 mm 181 W/m2
14:36 12.1 °C 7.4 °C 1010 hPa East 4.8 km/h 6.4 km/h 73% 0 mm 202 W/m2
14:42 12.2 °C 7.3 °C 1010 hPa SE 4.8 km/h 8 km/h 72% 0 mm 167 W/m2
14:48 12.1 °C 6.9 °C 1009.7 hPa South 4.8 km/h 11.3 km/h 71% 0 mm 192 W/m2
14:54 12.1 °C 7.2 °C 1009.7 hPa SE 4.8 km/h 12.9 km/h 72% 0 mm 171 W/m2
15:00 12.2 °C 7.1 °C 1009.7 hPa East 4.8 km/h 11.3 km/h 71% 0 mm 151 W/m2
15:06 12.1 °C 7.2 °C 1009.7 hPa SSE 4.8 km/h 11.3 km/h 72% 0 mm 197 W/m2
15:12 12.1 °C 7.2 °C 1009.7 hPa ESE 4.8 km/h 8 km/h 72% 0 mm 139 W/m2
15:18 12.1 °C 7.2 °C 1009.7 hPa ENE 4.8 km/h 8 km/h 72% 0 mm 111 W/m2
15:24 12 °C 7.3 °C 1009.7 hPa East 4.8 km/h 8 km/h 73% 0 mm 104 W/m2
15:30 12 °C 7.3 °C 1009.7 hPa ESE 4.8 km/h 4.8 km/h 73% 0 mm 102 W/m2
15:36 12.1 °C 7.3 °C 1009.7 hPa SSE 3.2 km/h 4.8 km/h 73% 0 mm 100 W/m2
15:42 12.1 °C 7.6 °C 1009.7 hPa SE 4.8 km/h 6.4 km/h 74% 0 mm 90 W/m2
15:48 12.1 °C 7.3 °C 1009.7 hPa SE 3.2 km/h 6.4 km/h 73% 0 mm 83 W/m2
15:54 12.1 °C 7.3 °C 1009.4 hPa SE 3.2 km/h 6.4 km/h 73% 0 mm 74 W/m2
16:00 12 °C 7.5 °C 1009.4 hPa SE 4.8 km/h 4.8 km/h 74% 0 mm 74 W/m2
16:06 12 °C 7.5 °C 1009.4 hPa SE 3.2 km/h 4.8 km/h 74% 0 mm 90 W/m2
16:12 12.1 °C 7.8 °C 1009.4 hPa SE 3.2 km/h 4.8 km/h 75% 0 mm 109 W/m2
16:18 12.1 °C 7.8 °C 1009 hPa SSE 3.2 km/h 6.4 km/h 75% 0 mm 121 W/m2
16:24 12.2 °C 7.9 °C 1009 hPa ESE 3.2 km/h 4.8 km/h 75% 0 mm 197 W/m2
16:29 12.4 °C 7.9 °C 1009 hPa SSE 3.2 km/h 3.2 km/h 74% 0 mm 218 W/m2
16:36 12.6 °C 8.2 °C 1009 hPa SSE 4.8 km/h 4.8 km/h 75% 0 mm 287 W/m2
16:42 12.7 °C 7.8 °C 1009 hPa SSE 3.2 km/h 4.8 km/h 72% 0 mm 185 W/m2
16:48 12.7 °C 7.8 °C 1009 hPa SSE 4.8 km/h 4.8 km/h 72% 0 mm 162 W/m2
16:54 12.7 °C 7.6 °C 1009 hPa SE 4.8 km/h 6.4 km/h 71% 0 mm 149 W/m2
17:00 12.8 °C 7.7 °C 1009 hPa South 4.8 km/h 4.8 km/h 71% 0 mm 141 W/m2
17:06 12.7 °C 7.4 °C 1009 hPa SSE 4.8 km/h 4.8 km/h 70% 0 mm 113 W/m2
17:12 12.7 °C 7.4 °C 1009 hPa SSE 4.8 km/h 4.8 km/h 70% 0 mm 121 W/m2
17:18 12.7 °C 7.6 °C 1009 hPa SSE 6.4 km/h 9.7 km/h 71% 0 mm 123 W/m2
17:24 12.7 °C 7.4 °C 1009 hPa SE 4.8 km/h 6.4 km/h 70% 0 mm 137 W/m2
17:30 12.7 °C 7.4 °C 1009 hPa SSE 6.4 km/h 6.4 km/h 70% 0 mm 139 W/m2
17:36 12.8 °C 7.7 °C 1009 hPa SSE 4.8 km/h 6.4 km/h 71% 0 mm 121 W/m2
17:42 12.7 °C 7.3 °C 1009 hPa SE 3.2 km/h 8 km/h 70% 0 mm 121 W/m2
17:48 12.8 °C 7.7 °C 1009 hPa South 3.2 km/h 8 km/h 71% 0 mm 123 W/m2
17:54 12.8 °C 7.2 °C 1009 hPa SSE 3.2 km/h 6.4 km/h 69% 0 mm 111 W/m2
18:00 12.8 °C 7.4 °C 1008.7 hPa SE 4.8 km/h 4.8 km/h 70% 0 mm 107 W/m2
18:06 12.8 °C 7.4 °C 1008.7 hPa SE 1.6 km/h 4.8 km/h 70% 0 mm 93 W/m2
18:12 12.8 °C 7.4 °C 1008.7 hPa SSE 1.6 km/h 3.2 km/h 70% 0 mm 128 W/m2
18:18 12.8 °C 7.5 °C 1008.7 hPa SE 3.2 km/h 4.8 km/h 70% 0 mm 165 W/m2
19:02 12.6 °C 7.4 °C 1008.4 hPa SSE 3.2 km/h 3.2 km/h 71% 0 mm 39 W/m2
19:08 12.5 °C 7.6 °C 1008.4 hPa SSE 1.6 km/h 3.2 km/h 72% 0 mm 33 W/m2
19:13 12.4 °C 7.6 °C 1008.4 hPa SSE 1.6 km/h 3.2 km/h 72% 0 mm 30 W/m2
19:19 12.4 °C 7.5 °C 1008.4 hPa Calm     72% 0 mm 26 W/m2
19:25 12.3 °C 7.6 °C 1008.4 hPa Calm     73% 0 mm 25 W/m2
19:32 12.3 °C 7.6 °C 1008.4 hPa Calm     73% 0 mm 19 W/m2
19:38 12.3 °C 7.6 °C 1008.4 hPa Calm     73% 0 mm 16 W/m2
19:43 12.2 °C 7.7 °C 1008.4 hPa Calm     74% 0 mm 14 W/m2
19:49 12.2 °C 8.3 °C 1008.4 hPa Calm     77% 0 mm 11 W/m2
19:55 12.1 °C 8.5 °C 1008.4 hPa Calm     79% 0 mm 11 W/m2
20:02 11.9 °C 8.4 °C 1008.4 hPa Calm     79% 0 mm 7 W/m2
20:08 11.8 °C 8.3 °C 1008.4 hPa Calm     79% 0 mm 5 W/m2
20:13 11.7 °C 7.8 °C 1008.7 hPa Calm     77% 0 mm 0 W/m2
20:19 11.7 °C 7.9 °C 1008.4 hPa Calm   1.6 km/h 78% 0 mm 0 W/m2
20:25 11.6 °C 8.1 °C 1008.4 hPa Calm   1.6 km/h 79% 0 mm 0 W/m2
20:31 11.6 °C 8.2 °C 1008.4 hPa NE 1.6 km/h 3.2 km/h 80% 0 mm 0 W/m2
20:38 11.4 °C 8.3 °C 1008.4 hPa NE 1.6 km/h 3.2 km/h 81% 0 mm 0 W/m2
20:43 11.4 °C 8.5 °C 1008.4 hPa Calm   1.6 km/h 82% 0 mm 0 W/m2
20:49 11.4 °C 8.6 °C 1008.4 hPa Calm     83% 0 mm 0 W/m2
20:55 11.3 °C 8.7 °C 1008.4 hPa Calm     84% 0 mm 0 W/m2
21:02 11.1 °C 8.5 °C 1008.4 hPa Calm     84% 0 mm 0 W/m2
21:08 11.1 °C 8.7 °C 1008.4 hPa Calm   1.6 km/h 85% 0 mm 0 W/m2
21:13 11.1 °C 8.6 °C 1008.4 hPa Calm     85% 0 mm 0 W/m2
21:19 10.9 °C 8.7 °C 1008.4 hPa Calm     86% 0 mm 0 W/m2
21:25 10.9 °C 8.6 °C 1008.4 hPa Calm     86% 0 mm 0 W/m2
21:32 10.8 °C 8.6 °C 1008.4 hPa Calm     86% 0 mm 0 W/m2
21:38 10.7 °C 8.4 °C 1008.4 hPa Calm     86% 0 mm 0 W/m2
21:43 10.6 °C 8.5 °C 1008 hPa Calm     87% 0 mm 0 W/m2
21:49 10.4 °C 8.6 °C 1008 hPa Calm   1.6 km/h 88% 0 mm 0 W/m2
21:55 10.4 °C 8.5 °C 1008 hPa Calm   1.6 km/h 88% 0 mm 0 W/m2
22:02 10.3 °C 8.4 °C 1008 hPa Calm     88% 0 mm 0 W/m2
22:08 10.2 °C 8.3 °C 1008 hPa Calm     88% 0 mm 0 W/m2
22:13 10.2 °C 8.3 °C 1008 hPa Calm     88% 0 mm 0 W/m2
22:19 10.1 °C 8.3 °C 1008 hPa Calm     89% 0 mm 0 W/m2
22:25 10 °C 8.3 °C 1008 hPa Calm   1.6 km/h 89% 0 mm 0 W/m2
22:32 9.9 °C 8.2 °C 1008 hPa Calm     89% 0 mm 0 W/m2
22:38 9.8 °C 8.1 °C 1008 hPa Calm     89% 0 mm 0 W/m2
22:43 9.8 °C 8.1 °C 1008 hPa Calm     89% 0 mm 0 W/m2
22:49 9.8 °C 8.3 °C 1008 hPa Calm     90% 0 mm 0 W/m2
22:55 9.8 °C 8.3 °C 1008 hPa Calm     90% 0 mm 0 W/m2
23:02 9.8 °C 8.3 °C 1008 hPa Calm     90% 0 mm 0 W/m2
23:08 9.8 °C 8.3 °C 1007.7 hPa Calm     90% 0 mm 0 W/m2
23:13 9.8 °C 8.2 °C 1008 hPa Calm     90% 0 mm 0 W/m2
23:19 9.7 °C 8.1 °C 1007.7 hPa Calm     90% 0 mm 0 W/m2
23:25 9.6 °C 8.2 °C 1007.7 hPa Calm     91% 0 mm 0 W/m2
23:32 9.6 °C 8.2 °C 1007.7 hPa Calm     91% 0 mm 0 W/m2
23:38 9.5 °C 8.1 °C 1007.7 hPa Calm     91% 0 mm 0 W/m2
23:43 9.5 °C 8.1 °C 1007.7 hPa Calm     91% 0 mm 0 W/m2
23:49 9.5 °C 8.1 °C 1007.7 hPa Calm     91% 0 mm 0 W/m2
23:55 9.4 °C 8.1 °C 1007.7 hPa Calm     91% 0 mm 0 W/m2
Country Meadow, Clay, NY, USA
Compliments of Weather Underground - 2 mb